Vorticity
5 4 4 3 7 6 7 13 9 8 6 3 2 4 5 8 13 6 7 8 6 6 6 6 6 5 8 3 7 1 1 9 10 2 2 4 2 5
7 7 6 7 1 5 9 6 3 5 10 6 3 5 7 13 5 11 8 7 9 10 9 5 6 23 13 2 -3 5 5 4 5 3 3 7 3 2
14 7 14 10 12 5 2 -14 21 10 16 3 18 9 10 5 9 8 9 7 2 -6 11 14 7 0 3 8 6 8 4 3 5 7 5 2 5 3
7 31 36 10 2 1 -5 16 3 9 10 7 16 12 4 9 6 5 4 6 4 17 10 20 2 6 13 6 2 11 5 6 6 6 -2 2 3 4
-6 -2 23 27 20 20 20 5 2 10 10 8 4 8 6 6 9 -1 -13 -1 25 3 11 2 3 -11 6 11 12 11 8 4 3 0 0 6 12 10
6 13 4 5 11 13 9 4 8 11 8 6 6 2 1 2 1 8 -1 -2 8 0 0 6 12 6 13 36 11 4 3 -1 2 8 12 8 8 10
8 9 10 17 0 6 13 8 6 3 1 1 3 -3 3 10 2 1 9 8 9 9 29 6 12 18 8 -1 -11 -15 -7 2 4 3 8 11 11 11
6 5 0 19 5 7 7 4 3 3 4 1 3 7 8 5 5 3 0 12 -5 12 9 10 16 11 10 -13 -3 10 1 10 14 12 12 12 7 6
5 10 12 15 -9 -8 -11 8 8 8 5 2 8 9 6 6 5 9 5 11 1 -20 13 -9 6 17 16 -7 10 6 16 13 11 9 9 9 11 17
5 5 3 2 6 8 8 7 2 2 10 9 4 5 18 4 5 -4 4 -1 10 13 0 2 0 0 4 8 6 11 14 10 9 9 12 10 9 -2
5 5 7 14 -6 12 48 -29 -7 17 3 -2 6 19 18 22 37 4 17 2 -3 -9 16 7 6 1 5 16 16 6 8 10 11 17 10 0 1 12
4 4 5 1 2 14 -5 -1 3 10 -9 18 31 12 5 -34 -7 -10 6 10 -1 4 4 2 16 11 10 12 8 10 14 12 11 4 1 8 20 12
6 8 -7 7 -2 6 44 36 13 -16 -16 34 -21 -5 1 7 7 9 6 -8 5 0 8 7 13 15 11 6 16 12 8 2 8 8 22 16 15 11
2 14 2 7 36 17 -13 3 7 -1 19 -7 -11 -8 22 3 3 9 5 7 9 10 12 6 9 13 17 12 14 10 18 14 13 12 10 9 8 8
8 -23 17 23 2 3 3 0 8 -11 -17 2 6 10 13 6 -14 8 12 10 7 7 12 13 19 15 13 9 9 8 8 6 6 8 8 8 8 7
-6 2 4 28 -36 5 -14 -17 -2 25 2 11 19 6 -7 6 11 10 9 8 9 16 20 14 12 7 6 6 11 10 8 10 8 9 9 11 12 9
-3 16 -3 -19 -3 7 15 17 11 -11 -14 7 5 -5 8 12 8 5 9 22 22 15 10 9 9 6 8 9 9 10 13 13 12 13 13 12 12 10
3 4 29 23 45 14 7 1 8 7 -2 -3 13 11 10 0 8 28 20 16 10 10 8 7 6 9 11 14 18 14 16 12 10 10 8 10 14 14
4 32 8 -12 -15 -17 -9 9 9 15 13 10 7 0 5 29 21 17 11 9 11 8 8 9 9 10 14 15 13 9 8 7 6 8 12 14 12 16
16 9 -25 -19 -8 7 8 8 10 14 8 5 5 29 25 20 12 8 10 7 8 11 12 14 17 13 12 11 12 2 6 12 15 19 20 17 22 23
-3 -15 -18 2 5 -12 12 19 7 4 11 34 27 18 10 7 10 9 9 11 11 13 14 10 8 8 3 4 10 17 20 16 20 23 18 13 11 12
11 21 21 23 27 31 4 -5 27 29 21 14 10 7 6 10 11 11 12 15 16 10 8 7 5 4 6 9 13 17 23 24 8 9 11 15 20 26
6 18 21 7 -8 15 31 27 18 11 11 10 10 7 12 10 12 12 15 11 8 6 5 5 5 6 7 16 22 25 12 8 10 15 18 20 19 17
Height
5766 5768 5769 5769 5770 5771 5773 5772 5772 5773 5772 5770 5767 5765 5764 5763 5760 5757 5755 5752 5748 5746 5742 5740 5737 5733 5729 5726 5722 5718 5714 5708 5704 5700 5695 5690 5685 5679
5758 5759 5760 5761 5762 5763 5764 5764 5764 5763 5764 5760 5757 5755 5753 5751 5749 5747 5744 5741 5739 5736 5732 5728 5724 5720 5718 5714 5709 5706 5700 5695 5691 5686 5681 5676 5670 5664
5749 5751 5752 5752 5754 5754 5755 5755 5754 5754 5753 5751 5748 5746 5744 5741 5738 5736 5733 5729 5727 5723 5719 5716 5712 5708 5705 5701 5697 5692 5687 5683 5678 5673 5668 5662 5657 5650
5741 5742 5743 5744 5745 5744 5744 5744 5745 5743 5742 5742 5740 5737 5735 5732 5730 5728 5725 5720 5715 5712 5708 5704 5701 5697 5692 5688 5684 5680 5674 5669 5664 5659 5652 5648 5642 5634
5732 5734 5735 5734 5735 5733 5733 5734 5734 5733 5732 5731 5731 5728 5725 5723 5720 5717 5714 5710 5706 5702 5699 5694 5689 5684 5680 5675 5670 5665 5659 5654 5650 5644 5638 5631 5623 5616
5725 5724 5725 5725 5726 5726 5725 5724 5724 5723 5722 5721 5720 5718 5716 5714 5710 5706 5703 5698 5694 5690 5685 5679 5675 5669 5664 5662 5657 5651 5645 5640 5635 5627 5620 5612 5605 5597
5716 5716 5716 5717 5716 5717 5717 5715 5715 5714 5712 5711 5710 5707 5705 5701 5698 5694 5690 5685 5681 5677 5669 5665 5662 5656 5651 5647 5641 5635 5629 5622 5616 5609 5602 5594 5587 5578
5706 5707 5707 5708 5708 5708 5707 5707 5706 5703 5701 5699 5697 5695 5692 5689 5683 5681 5677 5672 5668 5665 5661 5651 5648 5642 5635 5630 5623 5617 5611 5604 5597 5590 5583 5575 5567 5559
5696 5697 5698 5698 5698 5698 5697 5695 5694 5692 5690 5688 5685 5682 5678 5674 5670 5667 5663 5659 5656 5652 5648 5639 5634 5627 5620 5612 5604 5598 5592 5586 5579 5571 5563 5556 5548 5541
5686 5686 5686 5686 5686 5685 5684 5682 5681 5679 5677 5675 5671 5666 5662 5658 5655 5652 5648 5644 5641 5638 5633 5627 5621 5613 5604 5595 5588 5581 5573 5567 5559 5552 5544 5537 5530 5523
5673 5673 5674 5670 5672 5668 5665 5661 5668 5664 5663 5660 5656 5651 5648 5643 5639 5638 5635 5629 5625 5622 5617 5613 5608 5600 5589 5579 5568 5561 5554 5547 5540 5533 5525 5518 5511 5504
5661 5661 5662 5662 5660 5657 5657 5656 5653 5650 5647 5644 5642 5633 5633 5629 5627 5625 5621 5615 5609 5605 5599 5593 5587 5582 5576 5565 5552 5545 5536 5529 5521 5514 5507 5497 5489 5484
5647 5648 5649 5648 5643 5641 5636 5638 5632 5633 5631 5629 5624 5621 5619 5616 5610 5606 5602 5597 5590 5585 5581 5574 5568 5561 5554 5548 5539 5527 5519 5511 5504 5496 5488 5477 5469 5461
5633 5633 5634 5634 5632 5627 5623 5626 5624 5622 5619 5615 5610 5606 5603 5597 5595 5589 5584 5578 5571 5565 5559 5554 5547 5540 5534 5528 5520 5512 5503 5491 5486 5479 5472 5463 5452 5443
5625 5615 5617 5620 5617 5615 5612 5612 5606 5605 5601 5598 5594 5590 5586 5582 5577 5571 5564 5558 5552 5546 5539 5534 5527 5519 5511 5505 5501 5492 5487 5478 5466 5459 5453 5444 5435 5426
5604 5602 5602 5601 5603 5600 5598 5594 5591 5588 5584 5580 5576 5572 5569 5564 5558 5551 5544 5538 5531 5525 5519 5513 5507 5501 5493 5483 5477 5471 5461 5454 5448 5438 5433 5425 5414 5403
5588 5588 5587 5584 5584 5582 5581 5579 5576 5571 5567 5564 5560 5556 5550 5544 5538 5532 5526 5520 5513 5505 5499 5494 5489 5482 5474 5467 5458 5447 5440 5432 5423 5417 5410 5405 5395 5381
5572 5570 5568 5568 5566 5565 5562 5561 5558 5554 5550 5546 5542 5537 5531 5525 5521 5514 5509 5502 5495 5488 5482 5476 5471 5465 5456 5446 5433 5425 5417 5410 5403 5395 5385 5380 5376 5361
5556 5554 5552 5550 5548 5545 5545 5544 5540 5536 5532 5527 5523 5517 5513 5507 5502 5497 5491 5485 5478 5471 5463 5458 5451 5445 5439 5432 5424 5402 5396 5389 5383 5376 5363 5356 5353 5346
5539 5540 5537 5533 5530 5528 5527 5524 5521 5517 5513 5509 5505 5500 5495 5490 5486 5480 5474 5469 5462 5455 5446 5437 5431 5424 5417 5411 5405 5395 5373 5365 5360 5354 5345 5338 5330 5321
5521 5520 5517 5515 5513 5511 5510 5506 5503 5499 5496 5491 5487 5483 5479 5474 5469 5464 5458 5452 5445 5439 5431 5422 5414 5405 5398 5390 5382 5374 5359 5342 5332 5326 5321 5318 5314 5311
5503 5503 5501 5499 5498 5495 5493 5490 5486 5482 5478 5475 5472 5468 5463 5458 5453 5447 5441 5435 5429 5422 5416 5407 5398 5388 5377 5368 5361 5349 5342 5332 5321 5307 5292 5292 5289 5289
5486 5485 5484 5482 5481 5479 5476 5473 5470 5467 5463 5460 5456 5452 5447 5442 5437 5432 5426 5420 5414 5407 5400 5392 5382 5370 5358 5348 5338 5329 5320 5313 5306 5301 5283 5270 5268 5265